owner,sensor,date,latitude,longitude,vertical_datum,sea_water_practical_salinity,qcFlag 
SCCF RECON,ioos:station:SCCF:13:1,2013-04-01T00:00:00Z,26.5255,-82.0032,1.0,-9999.0,1111122 
SCCF RECON,ioos:station:SCCF:13:1,2013-04-01T01:00:00Z,26.5255,-82.0032,1.0,-9999.0,1111122 
SCCF RECON,ioos:station:SCCF:13:1,2013-04-01T02:00:00Z,26.5255,-82.0032,1.0,-9999.0,1111122 
SCCF RECON,ioos:station:SCCF:13:1,2013-04-01T03:00:00Z,26.5255,-82.0032,1.0,-9999.0,1111122 
SCCF RECON,ioos:station:SCCF:13:1,2013-04-01T04:00:00Z,26.5255,-82.0032,1.0,-9999.0,1111122 
SCCF RECON,ioos:station:SCCF:13:1,2013-04-01T05:00:00Z,26.5255,-82.0032,1.0,-9999.0,1111122 
SCCF RECON,ioos:station:SCCF:13:1,2013-04-01T06:00:00Z,26.5255,-82.0032,1.0,-9999.0,1111122 
SCCF RECON,ioos:station:SCCF:13:1,2013-04-01T07:00:00Z,26.5255,-82.0032,1.0,-9999.0,1111122 
SCCF RECON,ioos:station:SCCF:13:1,2013-04-01T08:00:00Z,26.5255,-82.0032,1.0,-9999.0,1111122 
SCCF RECON,ioos:station:SCCF:13:1,2013-04-01T09:00:00Z,26.5255,-82.0032,1.0,-9999.0,1111122 
SCCF RECON,ioos:station:SCCF:13:1,2013-04-01T10:00:00Z,26.5255,-82.0032,1.0,-9999.0,1111122 
SCCF RECON,ioos:station:SCCF:13:1,2013-04-01T11:00:00Z,26.5255,-82.0032,1.0,-9999.0,1111122 
SCCF RECON,ioos:station:SCCF:13:1,2013-04-01T12:00:00Z,26.5255,-82.0032,1.0,-9999.0,1111122 
SCCF RECON,ioos:station:SCCF:13:1,2013-04-01T13:00:00Z,26.5255,-82.0032,1.0,-9999.0,1111122 
SCCF RECON,ioos:station:SCCF:13:1,2013-04-01T14:00:00Z,26.5255,-82.0032,1.0,-9999.0,1111122 
SCCF RECON,ioos:station:SCCF:13:1,2013-04-01T15:00:00Z,26.5255,-82.0032,1.0,-9999.0,1111122 
SCCF RECON,ioos:station:SCCF:13:1,2013-04-01T16:00:00Z,26.5255,-82.0032,1.0,-9999.0,1111122 
SCCF RECON,ioos:station:SCCF:13:1,2013-04-01T17:00:00Z,26.5255,-82.0032,1.0,-9999.0,1111122 
SCCF RECON,ioos:station:SCCF:13:1,2013-04-01T18:00:00Z,26.5255,-82.0032,1.0,-9999.0,1111122 
SCCF RECON,ioos:station:SCCF:13:1,2013-04-01T19:00:00Z,26.5255,-82.0032,1.0,-9999.0,1111122 
SCCF RECON,ioos:station:SCCF:13:1,2013-04-01T20:00:00Z,26.5255,-82.0032,1.0,-9999.0,1111122 
SCCF RECON,ioos:station:SCCF:13:1,2013-04-01T21:00:00Z,26.5255,-82.0032,1.0,-9999.0,1111122 
SCCF RECON,ioos:station:SCCF:13:1,2013-04-01T22:00:00Z,26.5255,-82.0032,1.0,-9999.0,1111122 
SCCF RECON,ioos:station:SCCF:13:1,2013-04-01T23:00:00Z,26.5255,-82.0032,1.0,-9999.0,1111122 
SCCF RECON,ioos:station:SCCF:13:1,2013-04-02T00:00:00Z,26.5255,-82.0032,1.0,-9999.0,1111122 
SCCF RECON,ioos:station:SCCF:13:1,2013-04-02T01:00:00Z,26.5255,-82.0032,1.0,-9999.0,1111122 
SCCF RECON,ioos:station:SCCF:13:1,2013-04-02T02:00:00Z,26.5255,-82.0032,1.0,-9999.0,1111122 
SCCF RECON,ioos:station:SCCF:13:1,2013-04-02T03:00:00Z,26.5255,-82.0032,1.0,-9999.0,1111122 
SCCF RECON,ioos:station:SCCF:13:1,2013-04-02T04:00:00Z,26.5255,-82.0032,1.0,-9999.0,1111122 
SCCF RECON,ioos:station:SCCF:13:1,2013-04-02T05:00:00Z,26.5255,-82.0032,1.0,-9999.0,1111122 
SCCF RECON,ioos:station:SCCF:13:1,2013-04-02T06:00:00Z,26.5255,-82.0032,1.0,-9999.0,1111122 
SCCF RECON,ioos:station:SCCF:13:1,2013-04-02T07:00:00Z,26.5255,-82.0032,1.0,-9999.0,1111122 
SCCF RECON,ioos:station:SCCF:13:1,2013-04-02T08:00:00Z,26.5255,-82.0032,1.0,-9999.0,1111122 
SCCF RECON,ioos:station:SCCF:13:1,2013-04-02T09:00:00Z,26.5255,-82.0032,1.0,-9999.0,1111122 
SCCF RECON,ioos:station:SCCF:13:1,2013-04-02T10:00:00Z,26.5255,-82.0032,1.0,-9999.0,1111122 
SCCF RECON,ioos:station:SCCF:13:1,2013-04-02T11:00:00Z,26.5255,-82.0032,1.0,-9999.0,1111122 
SCCF RECON,ioos:station:SCCF:13:1,2013-04-02T12:00:00Z,26.5255,-82.0032,1.0,-9999.0,1111122 
SCCF RECON,ioos:station:SCCF:13:1,2013-04-02T13:00:00Z,26.5255,-82.0032,1.0,-9999.0,1111122 
SCCF RECON,ioos:station:SCCF:13:1,2013-04-02T14:00:00Z,26.5255,-82.0032,1.0,-9999.0,1111122 
SCCF RECON,ioos:station:SCCF:13:1,2013-04-02T16:00:00Z,26.5255,-82.0032,2.389,31.86,1111122 
SCCF RECON,ioos:station:SCCF:13:1,2013-04-02T17:00:00Z,26.5255,-82.0032,2.35,30.99,1111122 
SCCF RECON,ioos:station:SCCF:13:1,2013-04-02T18:00:00Z,26.5255,-82.0032,2.365,30.24,1111122 
SCCF RECON,ioos:station:SCCF:13:1,2013-04-02T19:00:00Z,26.5255,-82.0032,2.424,31.08,1111122 
SCCF RECON,ioos:station:SCCF:13:1,2013-04-02T20:00:00Z,26.5255,-82.0032,2.496,29.41,1111122 
SCCF RECON,ioos:station:SCCF:13:1,2013-04-02T21:00:00Z,26.5255,-82.0032,2.542,30.16,1111122 
SCCF RECON,ioos:station:SCCF:13:1,2013-04-02T22:00:00Z,26.5255,-82.0032,2.568,31.6,1111122 
SCCF RECON,ioos:station:SCCF:13:1,2013-04-02T23:00:00Z,26.5255,-82.0032,2.57,32.6,1111122 
SCCF RECON,ioos:station:SCCF:13:1,2013-04-03T00:00:00Z,26.5255,-82.0032,2.54,32.87,1111122 
SCCF RECON,ioos:station:SCCF:13:1,2013-04-03T01:00:00Z,26.5255,-82.0032,2.48,32.91,1111122 
SCCF RECON,ioos:station:SCCF:13:1,2013-04-03T02:00:00Z,26.5255,-82.0032,2.41,31.57,1111122 
SCCF RECON,ioos:station:SCCF:13:1,2013-04-03T03:00:00Z,26.5255,-82.0032,2.34,30.41,1111122 
SCCF RECON,ioos:station:SCCF:13:1,2013-04-03T04:00:00Z,26.5255,-82.0032,2.26,28.94,1111122 
SCCF RECON,ioos:station:SCCF:13:1,2013-04-03T05:00:00Z,26.5255,-82.0032,2.181,26.2,1111122 
SCCF RECON,ioos:station:SCCF:13:1,2013-04-03T06:00:00Z,26.5255,-82.0032,2.11,24.42,1111122 
SCCF RECON,ioos:station:SCCF:13:1,2013-04-03T07:00:00Z,26.5255,-82.0032,2.07,23.44,1111122 
SCCF RECON,ioos:station:SCCF:13:1,2013-04-03T08:00:00Z,26.5255,-82.0032,2.093,22.35,1111122 
SCCF RECON,ioos:station:SCCF:13:1,2013-04-03T09:00:00Z,26.5255,-82.0032,2.16,21.5,1111122 
SCCF RECON,ioos:station:SCCF:13:1,2013-04-03T10:00:00Z,26.5255,-82.0032,2.24,21.01,1111122 
SCCF RECON,ioos:station:SCCF:13:1,2013-04-03T11:00:00Z,26.5255,-82.0032,2.3,24.31,1111122 
SCCF RECON,ioos:station:SCCF:13:1,2013-04-03T12:00:00Z,26.5255,-82.0032,2.359,26.5,1111122 
SCCF RECON,ioos:station:SCCF:13:1,2013-04-03T13:00:00Z,26.5255,-82.0032,2.4,28.69,1111122 
SCCF RECON,ioos:station:SCCF:13:1,2013-04-03T14:00:00Z,26.5255,-82.0032,2.42,30.13,1111122 
SCCF RECON,ioos:station:SCCF:13:1,2013-04-03T15:00:00Z,26.5255,-82.0032,2.42,31.34,1111122 
SCCF RECON,ioos:station:SCCF:13:1,2013-04-03T16:00:00Z,26.5255,-82.0032,2.41,31.88,1111122 
SCCF RECON,ioos:station:SCCF:13:1,2013-04-03T17:00:00Z,26.5255,-82.0032,2.404,32.14,1111122 
SCCF RECON,ioos:station:SCCF:13:1,2013-04-03T18:00:00Z,26.5255,-82.0032,2.401,32.12,1111122 
SCCF RECON,ioos:station:SCCF:13:1,2013-04-03T19:00:00Z,26.5255,-82.0032,2.42,32.26,1111122 
SCCF RECON,ioos:station:SCCF:13:1,2013-04-03T20:00:00Z,26.5255,-82.0032,2.48,32.43,1111122 
SCCF RECON,ioos:station:SCCF:13:1,2013-04-03T21:00:00Z,26.5255,-82.0032,2.531,32.79,1111122 
SCCF RECON,ioos:station:SCCF:13:1,2013-04-03T22:00:00Z,26.5255,-82.0032,2.57,33.2,1111122 
SCCF RECON,ioos:station:SCCF:13:1,2013-04-03T23:00:00Z,26.5255,-82.0032,2.608,33.36,1111122 
SCCF RECON,ioos:station:SCCF:13:1,2013-04-04T00:00:00Z,26.5255,-82.0032,2.63,33.37,1111122 
SCCF RECON,ioos:station:SCCF:13:1,2013-04-04T01:00:00Z,26.5255,-82.0032,2.61,33.35,1111122 
SCCF RECON,ioos:station:SCCF:13:1,2013-04-04T02:00:00Z,26.5255,-82.0032,2.6,33.37,1111122 
SCCF RECON,ioos:station:SCCF:13:1,2013-04-04T03:00:00Z,26.5255,-82.0032,2.54,33.35,1111122 
SCCF RECON,ioos:station:SCCF:13:1,2013-04-04T04:00:00Z,26.5255,-82.0032,2.461,32.64,1111122 
SCCF RECON,ioos:station:SCCF:13:1,2013-04-04T05:00:00Z,26.5255,-82.0032,2.376,31.24,1111122 
SCCF RECON,ioos:station:SCCF:13:1,2013-04-04T06:00:00Z,26.5255,-82.0032,2.26,29.88,1111122 
SCCF RECON,ioos:station:SCCF:13:1,2013-04-04T07:00:00Z,26.5255,-82.0032,2.17,28.04,1111122 
SCCF RECON,ioos:station:SCCF:13:1,2013-04-04T08:00:00Z,26.5255,-82.0032,2.16,26.82,1111122 
SCCF RECON,ioos:station:SCCF:13:1,2013-04-04T09:00:00Z,26.5255,-82.0032,2.23,26.03,1111122 
SCCF RECON,ioos:station:SCCF:13:1,2013-04-04T10:00:00Z,26.5255,-82.0032,2.27,25.44,1111122 
SCCF RECON,ioos:station:SCCF:13:1,2013-04-04T11:00:00Z,26.5255,-82.0032,2.3,25.04,1111122 
SCCF RECON,ioos:station:SCCF:13:1,2013-04-04T12:00:00Z,26.5255,-82.0032,2.342,25.55,1111122 
SCCF RECON,ioos:station:SCCF:13:1,2013-04-04T13:00:00Z,26.5255,-82.0032,2.393,28.75,1111122 
SCCF RECON,ioos:station:SCCF:13:1,2013-04-04T14:00:00Z,26.5255,-82.0032,2.43,29.04,1111122 
SCCF RECON,ioos:station:SCCF:13:1,2013-04-04T15:00:00Z,26.5255,-82.0032,2.473,30.65,1111122 
SCCF RECON,ioos:station:SCCF:13:1,2013-04-04T16:00:00Z,26.5255,-82.0032,2.503,32.5,1111122 
SCCF RECON,ioos:station:SCCF:13:1,2013-04-04T17:00:00Z,26.5255,-82.0032,2.491,33.33,1111122 
SCCF RECON,ioos:station:SCCF:13:1,2013-04-04T18:00:00Z,26.5255,-82.0032,2.43,33.28,1111122 
SCCF RECON,ioos:station:SCCF:13:1,2013-04-04T19:00:00Z,26.5255,-82.0032,2.37,33.26,1111122 
SCCF RECON,ioos:station:SCCF:13:1,2013-04-04T20:00:00Z,26.5255,-82.0032,2.35,30.56,1111122 
SCCF RECON,ioos:station:SCCF:13:1,2013-04-04T21:00:00Z,26.5255,-82.0032,2.324,29.33,1111122 
SCCF RECON,ioos:station:SCCF:13:1,2013-04-04T22:00:00Z,26.5255,-82.0032,2.28,27.92,1111122 
SCCF RECON,ioos:station:SCCF:13:1,2013-04-04T23:00:00Z,26.5255,-82.0032,2.22,26.71,1111122 
SCCF RECON,ioos:station:SCCF:13:1,2013-04-05T00:00:00Z,26.5255,-82.0032,2.4,26.96,1111122 
SCCF RECON,ioos:station:SCCF:13:1,2013-04-05T01:00:00Z,26.5255,-82.0032,2.512,30.04,1111122 
SCCF RECON,ioos:station:SCCF:13:1,2013-04-05T02:00:00Z,26.5255,-82.0032,2.56,29.96,1111122 
SCCF RECON,ioos:station:SCCF:13:1,2013-04-05T03:00:00Z,26.5255,-82.0032,2.531,32.25,1111122 
SCCF RECON,ioos:station:SCCF:13:1,2013-04-05T04:00:00Z,26.5255,-82.0032,2.44,33.04,1111122 
SCCF RECON,ioos:station:SCCF:13:1,2013-04-05T05:00:00Z,26.5255,-82.0032,2.325,32.52,1111122 
SCCF RECON,ioos:station:SCCF:13:1,2013-04-05T06:00:00Z,26.5255,-82.0032,2.24,29.28,1111122 
SCCF RECON,ioos:station:SCCF:13:1,2013-04-05T07:00:00Z,26.5255,-82.0032,2.151,27.66,1111122 
SCCF RECON,ioos:station:SCCF:13:1,2013-04-05T08:00:00Z,26.5255,-82.0032,2.05,26.15,1111122 
SCCF RECON,ioos:station:SCCF:13:1,2013-04-05T09:00:00Z,26.5255,-82.0032,2.047,25.0,1111122 
SCCF RECON,ioos:station:SCCF:13:1,2013-04-05T10:00:00Z,26.5255,-82.0032,2.238,24.59,1111122 
SCCF RECON,ioos:station:SCCF:13:1,2013-04-05T11:00:00Z,26.5255,-82.0032,2.281,27.09,1111122 
SCCF RECON,ioos:station:SCCF:13:1,2013-04-05T12:00:00Z,26.5255,-82.0032,2.422,27.01,1111122 
SCCF RECON,ioos:station:SCCF:13:1,2013-04-05T13:00:00Z,26.5255,-82.0032,2.413,29.42,1111122 
SCCF RECON,ioos:station:SCCF:13:1,2013-04-05T14:00:00Z,26.5255,-82.0032,2.483,31.0,1111122 
SCCF RECON,ioos:station:SCCF:13:1,2013-04-05T15:00:00Z,26.5255,-82.0032,2.54,32.0,1111122 
SCCF RECON,ioos:station:SCCF:13:1,2013-04-05T16:00:00Z,26.5255,-82.0032,2.547,32.34,1111122 
SCCF RECON,ioos:station:SCCF:13:1,2013-04-05T17:00:00Z,26.5255,-82.0032,2.48,32.81,1111122 
SCCF RECON,ioos:station:SCCF:13:1,2013-04-05T18:00:00Z,26.5255,-82.0032,2.43,32.89,1111122 
SCCF RECON,ioos:station:SCCF:13:1,2013-04-05T19:00:00Z,26.5255,-82.0032,2.39,32.51,1111122 
SCCF RECON,ioos:station:SCCF:13:1,2013-04-05T20:00:00Z,26.5255,-82.0032,2.31,31.0,1111122 
SCCF RECON,ioos:station:SCCF:13:1,2013-04-05T21:00:00Z,26.5255,-82.0032,2.31,30.68,1111122 
SCCF RECON,ioos:station:SCCF:13:1,2013-04-05T22:00:00Z,26.5255,-82.0032,2.27,28.68,1111122 
SCCF RECON,ioos:station:SCCF:13:1,2013-04-05T23:00:00Z,26.5255,-82.0032,2.26,26.82,1111122 
SCCF RECON,ioos:station:SCCF:13:1,2013-04-06T00:00:00Z,26.5255,-82.0032,2.315,26.07,1111122 
SCCF RECON,ioos:station:SCCF:13:1,2013-04-06T01:00:00Z,26.5255,-82.0032,2.397,26.45,1111122 
SCCF RECON,ioos:station:SCCF:13:1,2013-04-06T02:00:00Z,26.5255,-82.0032,2.41,27.72,1111122 
SCCF RECON,ioos:station:SCCF:13:1,2013-04-06T03:00:00Z,26.5255,-82.0032,2.43,28.62,1111122 
SCCF RECON,ioos:station:SCCF:13:1,2013-04-06T04:00:00Z,26.5255,-82.0032,2.39,29.25,1111122 
SCCF RECON,ioos:station:SCCF:13:1,2013-04-06T05:00:00Z,26.5255,-82.0032,2.343,29.35,1111122 
SCCF RECON,ioos:station:SCCF:13:1,2013-04-06T06:00:00Z,26.5255,-82.0032,2.279,27.49,1111122 
SCCF RECON,ioos:station:SCCF:13:1,2013-04-06T07:00:00Z,26.5255,-82.0032,2.2,25.86,1111122 
SCCF RECON,ioos:station:SCCF:13:1,2013-04-06T08:00:00Z,26.5255,-82.0032,2.12,24.97,1111122 
SCCF RECON,ioos:station:SCCF:13:1,2013-04-06T09:00:00Z,26.5255,-82.0032,2.042,23.99,1111122 
SCCF RECON,ioos:station:SCCF:13:1,2013-04-06T10:00:00Z,26.5255,-82.0032,2.0,23.06,1111122 
SCCF RECON,ioos:station:SCCF:13:1,2013-04-06T11:00:00Z,26.5255,-82.0032,2.01,22.22,1111122 
SCCF RECON,ioos:station:SCCF:13:1,2013-04-06T12:00:00Z,26.5255,-82.0032,2.08,21.35,1111122 
SCCF RECON,ioos:station:SCCF:13:1,2013-04-06T13:00:00Z,26.5255,-82.0032,2.2,21.01,1111122 
SCCF RECON,ioos:station:SCCF:13:1,2013-04-06T14:00:00Z,26.5255,-82.0032,2.27,22.81,1111122 
SCCF RECON,ioos:station:SCCF:13:1,2013-04-06T15:00:00Z,26.5255,-82.0032,2.31,24.74,1111122 
SCCF RECON,ioos:station:SCCF:13:1,2013-04-06T16:00:00Z,26.5255,-82.0032,2.36,25.9,1111122 
SCCF RECON,ioos:station:SCCF:13:1,2013-04-06T17:00:00Z,26.5255,-82.0032,2.389,28.1,1111122 
SCCF RECON,ioos:station:SCCF:13:1,2013-04-06T18:00:00Z,26.5255,-82.0032,2.301,30.03,1111122 
SCCF RECON,ioos:station:SCCF:13:1,2013-04-06T19:00:00Z,26.5255,-82.0032,2.207,30.4,1111122 
SCCF RECON,ioos:station:SCCF:13:1,2013-04-06T20:00:00Z,26.5255,-82.0032,2.16,28.56,1111122 
SCCF RECON,ioos:station:SCCF:13:1,2013-04-06T21:00:00Z,26.5255,-82.0032,2.114,25.03,1111122 
SCCF RECON,ioos:station:SCCF:13:1,2013-04-06T22:00:00Z,26.5255,-82.0032,2.095,24.14,1111122 
SCCF RECON,ioos:station:SCCF:13:1,2013-04-06T23:00:00Z,26.5255,-82.0032,2.12,23.46,1111122 
SCCF RECON,ioos:station:SCCF:13:1,2013-04-07T00:00:00Z,26.5255,-82.0032,2.192,22.87,1111122 
SCCF RECON,ioos:station:SCCF:13:1,2013-04-07T01:00:00Z,26.5255,-82.0032,2.28,23.88,1111122 
SCCF RECON,ioos:station:SCCF:13:1,2013-04-07T02:00:00Z,26.5255,-82.0032,2.35,26.14,1111122 
SCCF RECON,ioos:station:SCCF:13:1,2013-04-07T03:00:00Z,26.5255,-82.0032,2.4,27.12,1111122 
SCCF RECON,ioos:station:SCCF:13:1,2013-04-07T04:00:00Z,26.5255,-82.0032,2.44,28.05,1111122 
SCCF RECON,ioos:station:SCCF:13:1,2013-04-07T05:00:00Z,26.5255,-82.0032,2.43,29.44,1111122 
SCCF RECON,ioos:station:SCCF:13:1,2013-04-07T06:00:00Z,26.5255,-82.0032,2.34,30.11,1111122 
SCCF RECON,ioos:station:SCCF:13:1,2013-04-07T07:00:00Z,26.5255,-82.0032,2.25,30.23,1111122 
SCCF RECON,ioos:station:SCCF:13:1,2013-04-07T08:00:00Z,26.5255,-82.0032,2.15,27.46,1111122 
SCCF RECON,ioos:station:SCCF:13:1,2013-04-07T09:00:00Z,26.5255,-82.0032,2.08,24.76,1111122 
SCCF RECON,ioos:station:SCCF:13:1,2013-04-07T10:00:00Z,26.5255,-82.0032,2.03,23.59,1111122 
SCCF RECON,ioos:station:SCCF:13:1,2013-04-07T11:00:00Z,26.5255,-82.0032,2.03,22.71,1111122 
SCCF RECON,ioos:station:SCCF:13:1,2013-04-07T12:00:00Z,26.5255,-82.0032,2.109,21.95,1111122 
SCCF RECON,ioos:station:SCCF:13:1,2013-04-07T13:00:00Z,26.5255,-82.0032,2.24,21.63,1111122 
SCCF RECON,ioos:station:SCCF:13:1,2013-04-07T14:00:00Z,26.5255,-82.0032,2.319,24.9,1111122 
SCCF RECON,ioos:station:SCCF:13:1,2013-04-07T15:00:00Z,26.5255,-82.0032,2.373,26.42,1111122 
SCCF RECON,ioos:station:SCCF:13:1,2013-04-07T16:00:00Z,26.5255,-82.0032,2.409,27.7,1111122 
SCCF RECON,ioos:station:SCCF:13:1,2013-04-07T17:00:00Z,26.5255,-82.0032,2.417,30.42,1111122 
SCCF RECON,ioos:station:SCCF:13:1,2013-04-07T18:00:00Z,26.5255,-82.0032,2.365,30.57,1111122 
SCCF RECON,ioos:station:SCCF:13:1,2013-04-07T19:00:00Z,26.5255,-82.0032,2.27,30.87,1111122 
SCCF RECON,ioos:station:SCCF:13:1,2013-04-07T20:00:00Z,26.5255,-82.0032,2.186,29.82,1111122 
SCCF RECON,ioos:station:SCCF:13:1,2013-04-07T21:00:00Z,26.5255,-82.0032,2.114,26.53,1111122 
SCCF RECON,ioos:station:SCCF:13:1,2013-04-07T22:00:00Z,26.5255,-82.0032,2.049,24.3,1111122 
SCCF RECON,ioos:station:SCCF:13:1,2013-04-07T23:00:00Z,26.5255,-82.0032,2.019,23.9,1111122 
SCCF RECON,ioos:station:SCCF:13:1,2013-04-08T00:00:00Z,26.5255,-82.0032,2.06,23.37,1111122 
SCCF RECON,ioos:station:SCCF:13:1,2013-04-08T01:00:00Z,26.5255,-82.0032,2.207,22.54,1111122 
SCCF RECON,ioos:station:SCCF:13:1,2013-04-08T02:00:00Z,26.5255,-82.0032,2.29,25.33,1111122 
SCCF RECON,ioos:station:SCCF:13:1,2013-04-08T03:00:00Z,26.5255,-82.0032,2.355,26.83,1111122 
SCCF RECON,ioos:station:SCCF:13:1,2013-04-08T04:00:00Z,26.5255,-82.0032,2.42,27.91,1111122 
SCCF RECON,ioos:station:SCCF:13:1,2013-04-08T05:00:00Z,26.5255,-82.0032,2.45,29.92,1111122 
SCCF RECON,ioos:station:SCCF:13:1,2013-04-08T06:00:00Z,26.5255,-82.0032,2.439,30.9,1111122 
SCCF RECON,ioos:station:SCCF:13:1,2013-04-08T07:00:00Z,26.5255,-82.0032,2.35,30.95,1111122 
SCCF RECON,ioos:station:SCCF:13:1,2013-04-08T08:00:00Z,26.5255,-82.0032,2.26,30.72,1111122 
SCCF RECON,ioos:station:SCCF:13:1,2013-04-08T09:00:00Z,26.5255,-82.0032,2.18,29.09,1111122 
SCCF RECON,ioos:station:SCCF:13:1,2013-04-08T10:00:00Z,26.5255,-82.0032,2.12,25.45,1111122 
SCCF RECON,ioos:station:SCCF:13:1,2013-04-08T11:00:00Z,26.5255,-82.0032,2.08,24.23,1111122 
SCCF RECON,ioos:station:SCCF:13:1,2013-04-08T12:00:00Z,26.5255,-82.0032,2.098,23.8,1111122 
SCCF RECON,ioos:station:SCCF:13:1,2013-04-08T13:00:00Z,26.5255,-82.0032,2.232,23.02,1111122 
SCCF RECON,ioos:station:SCCF:13:1,2013-04-08T14:00:00Z,26.5255,-82.0032,2.35,25.95,1111122 
SCCF RECON,ioos:station:SCCF:13:1,2013-04-08T15:00:00Z,26.5255,-82.0032,2.412,27.81,1111122 
SCCF RECON,ioos:station:SCCF:13:1,2013-04-08T16:00:00Z,26.5255,-82.0032,2.47,28.77,1111122 
SCCF RECON,ioos:station:SCCF:13:1,2013-04-08T17:00:00Z,26.5255,-82.0032,2.498,31.22,1111122 
SCCF RECON,ioos:station:SCCF:13:1,2013-04-08T18:00:00Z,26.5255,-82.0032,2.48,31.86,1111122 
SCCF RECON,ioos:station:SCCF:13:1,2013-04-08T19:00:00Z,26.5255,-82.0032,2.399,31.8,1111122 
SCCF RECON,ioos:station:SCCF:13:1,2013-04-08T20:00:00Z,26.5255,-82.0032,2.3,31.67,1111122 
SCCF RECON,ioos:station:SCCF:13:1,2013-04-08T21:00:00Z,26.5255,-82.0032,2.219,30.15,1111122 
SCCF RECON,ioos:station:SCCF:13:1,2013-04-08T22:00:00Z,26.5255,-82.0032,2.147,26.86,1111122 
SCCF RECON,ioos:station:SCCF:13:1,2013-04-08T23:00:00Z,26.5255,-82.0032,2.084,25.85,1111122 
SCCF RECON,ioos:station:SCCF:13:1,2013-04-09T00:00:00Z,26.5255,-82.0032,2.064,25.18,1111122 
SCCF RECON,ioos:station:SCCF:13:1,2013-04-09T01:00:00Z,26.5255,-82.0032,2.13,24.06,1111122 
SCCF RECON,ioos:station:SCCF:13:1,2013-04-09T02:00:00Z,26.5255,-82.0032,2.275,23.34,1111122 
SCCF RECON,ioos:station:SCCF:13:1,2013-04-09T03:00:00Z,26.5255,-82.0032,2.376,26.5,1111122 
SCCF RECON,ioos:station:SCCF:13:1,2013-04-09T04:00:00Z,26.5255,-82.0032,2.442,28.27,1111122 
SCCF RECON,ioos:station:SCCF:13:1,2013-04-09T05:00:00Z,26.5255,-82.0032,2.506,29.46,1111122 
SCCF RECON,ioos:station:SCCF:13:1,2013-04-09T06:00:00Z,26.5255,-82.0032,2.51,31.34,1111122 
SCCF RECON,ioos:station:SCCF:13:1,2013-04-09T07:00:00Z,26.5255,-82.0032,2.45,31.67,1111122 
SCCF RECON,ioos:station:SCCF:13:1,2013-04-09T08:00:00Z,26.5255,-82.0032,2.35,31.75,1111122 
SCCF RECON,ioos:station:SCCF:13:1,2013-04-09T09:00:00Z,26.5255,-82.0032,2.28,31.6,1111122 
SCCF RECON,ioos:station:SCCF:13:1,2013-04-09T10:00:00Z,26.5255,-82.0032,2.218,27.6,1111122 
SCCF RECON,ioos:station:SCCF:13:1,2013-04-09T11:00:00Z,26.5255,-82.0032,2.16,25.12,1111122 
SCCF RECON,ioos:station:SCCF:13:1,2013-04-09T12:00:00Z,26.5255,-82.0032,2.121,24.45,1111122 
SCCF RECON,ioos:station:SCCF:13:1,2013-04-09T13:00:00Z,26.5255,-82.0032,2.193,23.3,1111122 
SCCF RECON,ioos:station:SCCF:13:1,2013-04-09T14:00:00Z,26.5255,-82.0032,2.344,23.04,1111122 
SCCF RECON,ioos:station:SCCF:13:1,2013-04-09T15:00:00Z,26.5255,-82.0032,2.441,28.0,1111122 
SCCF RECON,ioos:station:SCCF:13:1,2013-04-09T16:00:00Z,26.5255,-82.0032,2.499,27.96,1111122 
SCCF RECON,ioos:station:SCCF:13:1,2013-04-09T17:00:00Z,26.5255,-82.0032,2.54,30.71,1111122 
SCCF RECON,ioos:station:SCCF:13:1,2013-04-09T18:00:00Z,26.5255,-82.0032,2.542,32.2,1111122 
SCCF RECON,ioos:station:SCCF:13:1,2013-04-09T19:00:00Z,26.5255,-82.0032,2.48,32.49,1111122 
SCCF RECON,ioos:station:SCCF:13:1,2013-04-09T20:00:00Z,26.5255,-82.0032,2.37,32.48,1111122 
SCCF RECON,ioos:station:SCCF:13:1,2013-04-09T21:00:00Z,26.5255,-82.0032,2.28,31.62,1111122 
SCCF RECON,ioos:station:SCCF:13:1,2013-04-09T22:00:00Z,26.5255,-82.0032,2.201,29.38,1111122 
SCCF RECON,ioos:station:SCCF:13:1,2013-04-09T23:00:00Z,26.5255,-82.0032,2.127,27.94,1111122 
SCCF RECON,ioos:station:SCCF:13:1,2013-04-10T00:00:00Z,26.5255,-82.0032,2.07,25.78,1111122 
SCCF RECON,ioos:station:SCCF:13:1,2013-04-10T01:00:00Z,26.5255,-82.0032,2.05,24.09,1111122 
SCCF RECON,ioos:station:SCCF:13:1,2013-04-10T02:00:00Z,26.5255,-82.0032,2.157,22.82,1111122 
SCCF RECON,ioos:station:SCCF:13:1,2013-04-10T03:00:00Z,26.5255,-82.0032,2.3,22.37,1111122 
SCCF RECON,ioos:station:SCCF:13:1,2013-04-10T04:00:00Z,26.5255,-82.0032,2.38,26.28,1111122 
SCCF RECON,ioos:station:SCCF:13:1,2013-04-10T05:00:00Z,26.5255,-82.0032,2.44,28.4,1111122 
SCCF RECON,ioos:station:SCCF:13:1,2013-04-10T06:00:00Z,26.5255,-82.0032,2.479,29.91,1111122 
SCCF RECON,ioos:station:SCCF:13:1,2013-04-10T07:00:00Z,26.5255,-82.0032,2.46,31.23,1111122 
SCCF RECON,ioos:station:SCCF:13:1,2013-04-10T08:00:00Z,26.5255,-82.0032,2.393,31.52,1111122 
SCCF RECON,ioos:station:SCCF:13:1,2013-04-10T09:00:00Z,26.5255,-82.0032,2.309,31.56,1111122 
SCCF RECON,ioos:station:SCCF:13:1,2013-04-10T10:00:00Z,26.5255,-82.0032,2.23,28.93,1111122 
SCCF RECON,ioos:station:SCCF:13:1,2013-04-10T11:00:00Z,26.5255,-82.0032,2.19,25.83,1111122 
SCCF RECON,ioos:station:SCCF:13:1,2013-04-10T12:00:00Z,26.5255,-82.0032,2.148,23.8,1111122 
SCCF RECON,ioos:station:SCCF:13:1,2013-04-10T13:00:00Z,26.5255,-82.0032,2.18,23.64,1111122 
SCCF RECON,ioos:station:SCCF:13:1,2013-04-10T14:00:00Z,26.5255,-82.0032,2.292,22.8,1111122 
SCCF RECON,ioos:station:SCCF:13:1,2013-04-10T15:00:00Z,26.5255,-82.0032,2.401,26.93,1111122 
SCCF RECON,ioos:station:SCCF:13:1,2013-04-10T16:00:00Z,26.5255,-82.0032,2.474,29.01,1111122 
SCCF RECON,ioos:station:SCCF:13:1,2013-04-10T17:00:00Z,26.5255,-82.0032,2.521,30.59,1111122 
SCCF RECON,ioos:station:SCCF:13:1,2013-04-10T18:00:00Z,26.5255,-82.0032,2.55,32.59,1111122 
SCCF RECON,ioos:station:SCCF:13:1,2013-04-10T19:00:00Z,26.5255,-82.0032,2.52,32.91,1111122 
SCCF RECON,ioos:station:SCCF:13:1,2013-04-10T20:00:00Z,26.5255,-82.0032,2.44,32.89,1111122 
SCCF RECON,ioos:station:SCCF:13:1,2013-04-10T21:00:00Z,26.5255,-82.0032,2.33,32.62,1111122 
SCCF RECON,ioos:station:SCCF:13:1,2013-04-10T22:00:00Z,26.5255,-82.0032,2.232,31.77,1111122 
SCCF RECON,ioos:station:SCCF:13:1,2013-04-10T23:00:00Z,26.5255,-82.0032,2.16,30.63,1111122 
SCCF RECON,ioos:station:SCCF:13:1,2013-04-11T00:00:00Z,26.5255,-82.0032,2.1,28.21,1111122 
SCCF RECON,ioos:station:SCCF:13:1,2013-04-11T01:00:00Z,26.5255,-82.0032,2.039,25.95,1111122 
SCCF RECON,ioos:station:SCCF:13:1,2013-04-11T02:00:00Z,26.5255,-82.0032,2.06,24.16,1111122 
SCCF RECON,ioos:station:SCCF:13:1,2013-04-11T03:00:00Z,26.5255,-82.0032,2.19,23.35,1111122 
SCCF RECON,ioos:station:SCCF:13:1,2013-04-11T04:00:00Z,26.5255,-82.0032,2.31,23.86,1111122 
SCCF RECON,ioos:station:SCCF:13:1,2013-04-11T05:00:00Z,26.5255,-82.0032,2.38,27.92,1111122 
SCCF RECON,ioos:station:SCCF:13:1,2013-04-11T06:00:00Z,26.5255,-82.0032,2.43,28.96,1111122 
SCCF RECON,ioos:station:SCCF:13:1,2013-04-11T07:00:00Z,26.5255,-82.0032,2.441,30.96,1111122 
SCCF RECON,ioos:station:SCCF:13:1,2013-04-11T08:00:00Z,26.5255,-82.0032,2.42,31.74,1111122 
SCCF RECON,ioos:station:SCCF:13:1,2013-04-11T09:00:00Z,26.5255,-82.0032,2.369,31.9,1111122 
SCCF RECON,ioos:station:SCCF:13:1,2013-04-11T10:00:00Z,26.5255,-82.0032,2.306,32.1,1111122 
SCCF RECON,ioos:station:SCCF:13:1,2013-04-11T11:00:00Z,26.5255,-82.0032,2.259,30.49,1111122 
SCCF RECON,ioos:station:SCCF:13:1,2013-04-11T12:00:00Z,26.5255,-82.0032,2.204,26.67,1111122 
SCCF RECON,ioos:station:SCCF:13:1,2013-04-11T13:00:00Z,26.5255,-82.0032,2.192,25.38,1111122 
SCCF RECON,ioos:station:SCCF:13:1,2013-04-11T14:00:00Z,26.5255,-82.0032,2.28,24.98,1111122 
SCCF RECON,ioos:station:SCCF:13:1,2013-04-11T15:00:00Z,26.5255,-82.0032,2.397,25.96,1111122 
SCCF RECON,ioos:station:SCCF:13:1,2013-04-11T16:00:00Z,26.5255,-82.0032,2.463,30.03,1111122 
SCCF RECON,ioos:station:SCCF:13:1,2013-04-11T17:00:00Z,26.5255,-82.0032,2.51,31.15,1111122 
SCCF RECON,ioos:station:SCCF:13:1,2013-04-11T18:00:00Z,26.5255,-82.0032,2.554,33.04,1111122 